AirNav   ATP
 
 1115 users online  

1T8 Bulverde Airpark
San Antonio, Texas, USA

GOING TO SAN ANTONIO?


FAA INFORMATION EFFECTIVE 01 FEBRUARY 2018

Location

FAA Identifier: 1T8
Lat/Long: 29-44-20.8000N / 098-27-04.0610W
29-44.346667N / 098-27.067683W
29.7391111 / -98.4511281
(estimated)
Elevation: 1080 ft. / 329 m (estimated)
Variation: 07E (1985)
From city: 16 miles N of SAN ANTONIO, TX
Time zone: UTC -6 (UTC -5 during Daylight Saving Time)
Zip code: 78163

Airport Operations

Airport use: Open to the public
Control tower: no
ARTCC: HOUSTON CENTER
FSS: SAN ANGELO FLIGHT SERVICE STATION
NOTAMs facility: SJT (NOTAM-D service available)
Attendance: 0900-1700
Pattern altitude: 2000 ft. MSL
Wind indicator: yes
Segmented circle: yes
Lights: ACTVT LIRL RY 16/34 - CTAF.
Beacon: white-green (lighted land airport)
DUSK-2200.

Airport Communications

CTAF/UNICOM: 122.8
WX ASOS at SAT (12 nm S): PHONE 210-805-5583
WX AWOS-3 at 5C1 (13 nm W): 118.725 (830-755-9099)

Nearby radio navigation aids

VOR radial/distance  VOR name  Freq  Var
SATr357/5.7SAN ANTONIO VORTAC116.8008E
RNDr322/15.8RANDOLPH VORTAC112.3005E
SSFr350/(28.8)STINSON VOR108.4009E
STVr147/31.0STONEWALL VORTAC113.8008E

 
NDB name  Hdg/Dist  Freq  Var  ID
ALAMO034/10.036804EAN .- -.

Airport Services

Fuel available: 100LL
FUEL AVBL 24 HRS SELF SVC WITH MAJOR CREDIT CARD
Parking: hangars and tiedowns
Airframe service: MAJOR
Powerplant service: MAJOR

Runway Information

Runway 16/34

Dimensions: 2890 x 40 ft. / 881 x 12 m
Surface: asphalt, in good condition
Runway edge lights: non-standard
NSTD LIRL; ONLY CNTR 2600 FT LGTD; RWY 16 DSPLCD THLD HAS SINGLE GREEN LGT EACH SIDE. RWY 34 HAS NO DSPLCD THLD LGTS.
Runway edge markings: RWY 16/34 MKD WITH 20 FT HIGH NRS; NO CNTRLN STRIPES; NUMBERS NOT AT DSPLCD THLD; AND NO DSPLCD THLD MARKINGS
RUNWAY 16  RUNWAY 34
Traffic pattern: rightleft
Displaced threshold: 490 ft.200 ft.
Markings: NSTD, in fair conditionNSTD, in fair condition
Obstructions: 36 ft. pline, marked and lighted, 200 ft. from runway, 125 ft. right of centerline
RWY 16 +6' FENCE 100' FM THR ON CNTRLN; +10' ROAD 110' FM THR ACROSS CNTRLN; +25'-40' TREES 120' FM THR 75'-125' L OF CNTRLN, +35' POWER POLES 0' FM THR 108' L OF CNTRLN
27 ft. trees, 255 ft. from runway, 102 ft. right of centerline, 2:1 slope to clear
+36 FT TREES AT THLD 120 FT R.

Airport Ownership and Management from official FAA records

Ownership: Privately-owned
Owner: MARKLINE PROPERTIES INC
P.O. BOX 130
BULVERDE, TX 78163
Phone 830-438-4359
Manager: DANA ANDERSON
29890 BULVERDE LN #27
BULVERDE, TX 78163
Phone 830-438-4359

Airport Operational Statistics

Aircraft based on the field: 84
Single engine airplanes: 76
Multi engine airplanes: 4
Helicopters: 4
    
Aircraft operations: avg 66/day *
67% local general aviation
33% transient general aviation
* for 12-month period ending 14 December 2016

Additional Remarks

NOISE ABATEMENT PROCEDURES IN EFFECT CTC AMGR 830-438-4359.
NO TOUCH & GO, STOP & GO, OR LOW APPROACHES.
DEER ON OR IN INVOF ARPT
HELICOPTER LEFT HAND TRAFFIC 16; ALL OTHER RIGHT HAND TRAFFIC 16.
FOR CD CTC SAT APCH AT 210-805-5516.

Instrument Procedures

There are no published instrument procedures at 1T8.

Some nearby airports with instrument procedures:

KSAT - San Antonio International Airport (12 nm S)
5C1 - Boerne Stage Field Airport (13 nm W)
KRND - Randolph Air Force Base (16 nm SE)
KBAZ - New Braunfels Regional Airport (21 nm E)
KSKF - Kelly Field Airport (22 nm S)
 
Loc | Ops | Rwys | IFR | FBO | Links
Com | Nav | Svcs | Stats | Notes

AirNav Hotels Sweepstakes
 
Area around 1T8 (Bulverde Airpark)
 
Road maps at: MapQuest Bing Google
 
Aerial photo
WARNING: Photo may not be current or correct
Aerial photo of 1T8 (Bulverde Airpark)
Photo © Copyright 2004, by Michael Verber

Do you have a better or more recent aerial photo of Bulverde Airpark that you would like to share? If so, please send us your photo.

 
Sectional chart

 
Airport distance calculator
Flying to Bulverde Airpark? Find the distance to fly.

From to 1T8

Sunrise and sunset
Times for 24-Feb-2018
 Local
(UTC-6)
 Zulu
(UTC)
Morning civil twilight06:4212:42
Sunrise07:0613:06
Sunset18:2800:28
Evening civil twilight18:5200:52

Current date and time
Zulu (UTC)  24-Feb-2018 18:32:25
Local (UTC-6)  24-Feb-2018 12:32:25
 
METAR
KSAT 
12nm S 
241751Z 17007KT 4SM -RA BR FEW009 BKN018 OVC023 21/19 A2992 RMK AO2 RAB1659 SLP116 P0001 60001 T02060194 10211 20200 50001
K5C1 
13nm W 
241815Z AUTO 00000KT 3SM OVC005 18/18 A2994 RMK AO1
KRND 
16nm SE 
241801Z 23005KT 8SM FEW008 SCT014 OVC018 21/20 A2991 RMK CIG 015V028 SLP123
KBAZ 
21nm E 
241821Z 19010KT 2SM BR FEW018 FEW023 OVC034 22/20 A2989 RMK AO2 T02170200
KSKF 
23nm S 
241816Z AUTO 00000KT 5SM BR FEW010 OVC017 21/20 A2989 RMK AO2 OVC V BKN SLP117 $
KSSF 
24nm S 
241753Z 19004KT 8SM SCT016 BKN024 OVC029 23/20 A2989 RMK AO2 SLP115 T02280200 10228 20211 50002 $
TAF
KSAT 
12nm S 
241812Z 2418/2524 16014KT 5SM BR VCSH BKN012 FM242100 25008KT P6SM BKN200 FM251200 02009KT P6SM VCSH BKN015
KRND 
16nm SE 
241800Z 2418/2524 19009KT 9999 BKN015 QNH2988INS BECMG 2420/2421 25006KT 9999 SCT020 BKN160 QNH2986INS BECMG 2501/2502 33006KT 9999 SCT180 QNH2990INS BECMG 2510/2511 01009KT 9999 BKN060 OVC180 QNH2998INS TX25/2421Z TN12/2510Z LAST NO AMDS AFT 2423 NEXT 2510
NOTAMs
Click for the latest NOTAMs
NOTAMs are issued by the DoD/FAA and will open in a separate window not controlled by AirNav.

 

 
 

FBO, Fuel Providers, and Aircraft Ground Support

  
 Business Name 
 
 Contact 
 
 Services / Description 
 
Fuel Prices
 
Comments
  
 Anderson Aviation
210-287-9073
[web site]
[email]
Airport management, Aviation fuel, Flight training, Aircraft rental, Pilot supplies

More info about Anderson Aviation
EPIC
100LL
SS $4.20 
 Updated 19-Feb-2018
 
   1 read write
SS=Self service
Update Fuel Prices
 

Would you like to see your business listed on this page?

 If your business provides an interesting product or service to pilots, flight crews, aircraft, or users of the Bulverde Airpark, you should consider listing it here.  To start the listing process, click on the button below
 
Add a business
 

Other Pages about Bulverde Airpark

Update a link
 
Copyright © AirNav, LLC. All rights reserved. Privacy Policy  Contact